Regional Weather Roundup
Issued by NWS Little Rock, AR

Home | Current Version | Previous Version | Graphics & Text | Print | Product List | Glossary On
Versions: 1 2 3 4 5 6 7 8 9 10 11 12 13 14 15 16 17 18 19 20 21 22 23 24 25 26 27 28 29 30 31 32 33 34 35 36 37 38 39 40 41 42 43 44 45 46 47 48 49 50
000
ASUS44 KLZK 301405
RWRLZK

WEATHER ROUNDUP FOR ARKANSAS
NATIONAL WEATHER SERVICE LITTLE ROCK AR
900 AM CDT SUN AUG 30 2015

NOTE: "FAIR" INDICATES FEW OR NO CLOUDS BELOW 12,000 FEET WITH NO
SIGNIFICANT WEATHER AND/OR OBSTRUCTIONS TO VISIBILITY.

ARZ001-003-010-029-301500-
NORTHWEST ARKANSAS

CITY           SKY/WX    TMP DP  RH WIND       PRES   REMARKS
FAYETTEVILLE   SUNNY     72  70  93 CALM      30.04R FOG
FORT SMITH     SUNNY     75  68  78 NE7       29.99S
BENTONVILLE    MOSUNNY   73  66  78 SE5       30.05R
ROGERS         PTSUNNY   73  69  87 E8        30.06R
SILOAM SPGS    SUNNY     72  64  78 E3        30.02R
HIGHFILL       MOSUNNY   73  70  90 NE3       30.04R FOG
SPRINGDALE     PTSUNNY   73  70  88 E5        30.06R
$$

ARZ004-005-016-301500-
NORTH CENTRAL ARKANSAS

CITY           SKY/WX    TMP DP  RH WIND       PRES   REMARKS
BATESVILLE     PTSUNNY   72  70  94 CALM      30.04S
FLIPPIN        CLOUDY    70  64  83 SW3       30.04R
MTN HOME       CLOUDY    69  68  96 CALM      30.05S FOG
$$

ARZ040-041-301500-
WEST CENTRAL ARKANSAS

CITY           SKY/WX    TMP DP  RH WIND       PRES   REMARKS
MENA           MOSUNNY   75  72  88 CALM      30.04R
MOUNT IDA      MOSUNNY   76  69  79 CALM      30.01S
$$

ARZ009-017-025-026-028-301500-
NORTHEAST ARKANSAS

CITY           SKY/WX    TMP DP  RH WIND       PRES   REMARKS
JONESBORO      PTSUNNY   76  71  85 SE10      30.05S
NEWPORT        MOSUNNY   77  72  84 SE9       30.05R
WALNUT RIDGE   MOSUNNY   77  70  78 SE9       30.05R
BLYTHEVILLE    CLOUDY    75  73  93 SE7       30.06R
$$

ARZ022-023-033-042-044-301500-
CENTRAL ARKANSAS

CITY           SKY/WX    TMP DP  RH WIND       PRES   REMARKS
LITTLE ROCK    MOSUNNY   78  67  68 VRB3      30.03S
N LITTLE ROCK  MOSUNNY   78  68  71 S5        30.03S
JACKSONVILLE   SUNNY     77  69  75 E2        30.02S
SEARCY         SUNNY     77  71  82 SE6       30.04S
HOT SPRINGS    SUNNY     75  69  81 CALM      30.04R
RUSSELLVILLE   SUNNY     77  70  79 E5        30.02R
$$

ARZ036-301500-
EAST ARKANSAS

CITY           SKY/WX    TMP DP  RH WIND       PRES   REMARKS
WEST MEMPHIS   CLOUDY    75  72  90 S7        30.05R
$$

ARZ050-053-066-070-073-301500-
SOUTHWEST ARKANSAS

CITY           SKY/WX    TMP DP  RH WIND       PRES   REMARKS
ARKADELPHIA    FAIR      76  72  87 CALM      30.03R
CAMDEN         SUNNY     75  68  78 CALM      30.03R
TEXARKANA      SUNNY     79  66  64 SW8       30.02R
EL DORADO      SUNNY     78  67  68 SW3       30.03R HAZE
DE QUEEN       SUNNY     77  70  79 CALM      30.00R
$$

ARZ056-057-069-301500-
SOUTHEAST ARKANSAS

CITY           SKY/WX    TMP DP  RH WIND       PRES   REMARKS
PINE BLUFF     MOSUNNY   77  69  76 SE3       30.03S
STUTTGART      SUNNY     75  66  73 SE8       30.03S
MONTICELLO     SUNNY     77  68  73 S3        30.03R

$$





USA.gov is the U.S. government's official web portal to all federal, state and local government web resources and services.